Content
SEND FEEDBACK

Daily
Averages
Monthly
Summary
Greece

ANDRAVIDHA, GREECE


Home > Europe > Greece
Elevation: 50 feet     Latitude: 37 55N     Longitude: 021 17E

WEATHER
 
SELECT A DAY
Number of Records: 87,909;   Date Range: 7/11/96 - 8/10/14
 
SHARE

PRINT THIS DATA

[ ← Previous Day ]
WEATHER ALMANAC - JANUARY 10, 2013
[ Next Day → ]
[ °C ]   °F
Weather ElementAverageHighLow
Temperature46.6 °F53.6 °F (3:20 pm)37.4 °F (1:20 am)
Dewpoint34.3 °F44.6 °F (11:50 pm)26.6 °F (7:20 am)
Humidity62.1 %82 % (11:50 pm)34 % (2:00 pm)
Barometer30.10 in30.19 in (2:00 am)29.95 in (11:20 pm)
Wind Speed2.7 mph12.7 mph (10:50 pm)
Weather ElementAverage
Visibility6.1 mi
Wind DirectionNE (50.4 °)

Weather ElementTotal
Precipitation---
Heating Degree Days19.5 (Base 65)
Averaged from 47 records on January 10, 2013
WEATHER CONDITIONS BREAKOUT
WIND DIRECTION BREAKOUT
WEATHER BY HOUR - JANUARY 10, 2013
[ °C ]   °F
Local TimeTemperatureDewpointHumidityBarometerVisibilityWind DirectionWind SpeedGust SpeedPrecipitationEventsConditions
1:20 AM37.4 °F30.2 °F75 %30.18 inSE (130°)4.6 mphClear
1:50 AM39.2 °F28.4 °F65 %30.18 inCalmClear
2:00 AM39.0 °F29.0 °F57 %30.19 in6.0 miCalmClear
3:50 AM41.0 °F28.4 °F61 %30.18 inCalmClear
4:20 AM41.0 °F28.4 °F61 %30.18 inCalmClear
4:50 AM37.4 °F28.4 °F70 %30.15 inEast (100°)5.8 mphClear
5:20 AM39.2 °F28.4 °F65 %30.15 inEast (100°)5.8 mphClear
5:50 AM39.2 °F28.4 °F65 %30.15 inCalmClear
6:20 AM39.2 °F28.4 °F65 %30.15 inCalmClear
6:50 AM39.2 °F30.2 °F70 %30.15 in6.2 miCalmMostly Cloudy
7:20 AM39.2 °F26.6 °F61 %30.15 in6.2 miCalmMostly Cloudy
7:50 AM39.2 °F28.4 °F65 %30.15 in6.2 miCalmMostly Cloudy
8:00 AM40.0 °F28.0 °F51 %30.17 in6.0 miCalmMostly Cloudy
8:20 AM39.2 °F30.2 °F70 %30.15 in6.2 miCalmMostly Cloudy
8:50 AM41.0 °F32.0 °F70 %30.15 in6.2 miCalmMostly Cloudy
9:20 AM42.8 °F33.8 °F70 %30.15 in6.2 miCalmMostly Cloudy
9:50 AM44.6 °F32.0 °F61 %30.18 in6.2 miCalmMostly Cloudy
10:20 AM46.4 °F32.0 °F57 %30.18 in6.2 miCalmMostly Cloudy
10:50 AM46.4 °F32.0 °F57 %30.18 in6.2 miCalmMostly Cloudy
11:20 AM48.2 °F32.0 °F54 %30.15 in6.2 miCalmMostly Cloudy
11:50 AM50.0 °F32.0 °F50 %30.15 in6.2 miCalmMostly Cloudy
12:20 PM51.8 °F30.2 °F44 %30.15 in6.2 miCalmMostly Cloudy
12:50 PM51.8 °F28.4 °F41 %30.12 in6.2 miCalmMostly Cloudy
1:20 PM51.8 °F28.4 °F41 %30.12 in6.2 miCalmMostly Cloudy
1:50 PM51.8 °F32.0 °F47 %30.12 in6.2 miSouth (180°)4.6 mphMostly Cloudy
2:00 PM53.0 °F33.0 °F34 %30.13 in6.0 miSouth (180°)4.6 mphMostly Cloudy
2:20 PM51.8 °F35.6 °F54 %30.09 in6.2 miCalmMostly Cloudy
2:50 PM51.8 °F33.8 °F50 %30.09 in6.2 miCalmMostly Cloudy
3:20 PM53.6 °F35.6 °F51 %30.09 in6.2 miCalmMostly Cloudy
3:50 PM51.8 °F37.4 °F58 %30.09 in6.2 miCalmOvercast
4:20 PM50.0 °F41.0 °F71 %30.06 in6.2 miCalmOvercast
4:50 PM50.0 °F42.8 °F76 %30.06 in6.2 miCalmOvercast
5:20 PM50.0 °F42.8 °F76 %30.06 in6.2 miCalmOvercast
5:50 PM50.0 °F39.2 °F66 %30.06 in6.2 miESE (120°)5.8 mphOvercast
6:20 PM50.0 °F39.2 °F66 %30.06 in6.2 miCalmOvercast
6:50 PM48.2 °F39.2 °F71 %30.04 in5.6 miCalmRainLight Rain
7:20 PM48.2 °F39.2 °F71 %30.04 in5.6 miCalmRainLight Rain
7:50 PM48.2 °F39.2 °F71 %30.01 in5.6 miSE (140°)6.9 mphRainLight Rain
8:00 PM49.0 °F39.0 °F60 %30.03 in6.0 miSE (140°)6.9 mphRainLight Rain
8:20 PM48.2 °F39.2 °F71 %30.01 in5.6 miSE (140°)8.1 mphRainLight Rain
8:50 PM50.0 °F39.2 °F66 %30.01 in6.2 miSSE (150°)10.4 mphOvercast
9:20 PM50.0 °F39.2 °F66 %30.01 in6.2 miSSE (150°)9.2 mphOvercast
9:50 PM51.8 °F41.0 °F67 %29.98 in6.2 miSE (140°)10.4 mphOvercast
10:20 PM51.8 °F41.0 °F67 %29.98 in6.2 miSSE (150°)10.4 mphOvercast
10:50 PM51.8 °F42.8 °F71 %29.98 in6.2 miSSE (150°)12.7 mphOvercast
11:20 PM53.6 °F41.0 °F62 %29.95 in6.2 miSSE (150°)12.7 mphOvercast
11:50 PM50.0 °F44.6 °F82 %29.95 in6.2 miSSE (150°)9.2 mphRainLight Rain
Hourly data recorded from LGAD, located miles away from Andravidha, Greece







STORIES FROM OUR PARTNERS